This demonstration page uses our WeatherBlox Daily Observations layout. Learn more.

Left ArrowRight Arrow

39.92423, -83.80882

Hourly Observations for November 1, 2018

Temp ( °F °C ) Dew Point ( °F °C ) Humidity (%) Winds ( mph kmh ) Pressure ( in mb ) Visibility ( mi km ) Precip ( " mm )
12:34 am 00:34 Cloudy with Light Rain 52 11 52 11 100 100 ENE 7 11 29.85 1011 7 11.26538 N/A
12:56 am 00:56 Cloudy 52 11.1 52 11.1 100 100 NE 7 11 29.86 1011 7 11.26538 N/A
1:56 am 01:56 Cloudy with Rain 51 10.6 51 10.6 100 100 NE 7 11 29.85 1011 4 6.43736 N/A
2:47 am 02:47 Cloudy with Rain 52 11 52 11 100 100 N 8 13 29.85 1011 7 11.26538 N/A
2:56 am 02:56 Cloudy with Rain 51 10.6 51 10.6 100 100 N 7 11 29.86 1011 6 9.65604 N/A
3:56 am 03:56 Cloudy with Rain 50 10 49 9.4 96 96 NNE 15 24 29.85 1011 7 11.26538 N/A
4:56 am 04:56 Cloudy with Light Rain 49 9.4 48 8.9 97 97 NE 13 20 29.83 1010 8 12.87472 N/A
5:56 am 05:56 Cloudy with Heavy Rain 47 8.3 47 8.3 100 100 NE 9 15 29.82 1010 6 9.65604 N/A
6:56 am 06:56 Cloudy with Light Rain 46 7.8 46 7.8 100 100 NE 16 26 29.81 1010 9 14.48406 N/A
7:56 am 07:56 Cloudy with Light Rain 46 7.8 46 7.8 100 100 ENE 10 17 29.8 1009 10 16.0934 N/A
8:56 am 08:56 Cloudy with Light Rain 46 7.8 45 7.2 96 96 NE 16 26 29.77 1008 9 14.48406 0.01 0.254
9:56 am 09:56 Cloudy with Rain 46 7.8 46 7.8 100 100 NE 16 26 29.75 1008 8 12.87472 N/A
10:56 am 10:56 Cloudy with Light Rain 46 7.8 46 7.8 100 100 NE 23 37 29.72 1007 9 14.48406 N/A
11:01 am 11:01 Cloudy with Light Rain 46 8 46 8 100 100 ENE 17 28 29.71 1006 10 16.0934 N/A
11:11 am 11:11 Cloudy with Rain 46 8 46 8 100 100 ENE 14 22 29.71 1006 9 14.48406 N/A
11:32 am 11:32 Cloudy with Rain 46 8 46 8 100 100 ENE 15 24 29.68 1005 8 12.87472 N/A
11:56 am 11:56 Cloudy with Rain 47 8.3 47 8.3 100 100 ENE 10 17 29.7 1006 5 8.0467 N/A
12:10 pm 12:10 Cloudy with Rain 46 8 46 8 100 100 ENE 15 24 29.65 1004 7 11.26538 N/A
12:28 pm 12:28 Cloudy with Heavy Rain 48 9 48 9 100 100 ENE 12 19 29.65 1004 3 4.82802 N/A
12:56 pm 12:56 Cloudy with Heavy Rain 47 8.3 47 8.3 100 100 ENE 12 19 29.64 1004 4 6.43736 N/A
1:17 pm 13:17 Cloudy with Heavy Rain 46 8 46 8 100 100 NE 13 20 29.62 1003 5 8.0467 N/A
1:56 pm 13:56 Cloudy with Rain 46 7.8 46 7.8 100 100 ENE 13 20 29.6 1003 7 11.26538 N/A
2:56 pm 14:56 Cloudy with Rain 46 7.8 46 7.8 100 100 NE 9 15 29.57 1001 5 8.0467 N/A
3:10 pm 15:10 Cloudy with Rain 46 8 46 8 100 100 NE 10 17 29.56 1001 2.5 4.02335 N/A
3:13 pm 15:13 Cloudy with Light Rain 46 8 46 8 100 100 NE 13 20 29.56 1001 3 4.82802 N/A
3:35 pm 15:35 Cloudy with Light Rain 46 8 46 8 100 100 NE 12 19 29.56 1001 2.5 4.02335 0.01 0.254
3:49 pm 15:49 Cloudy with Light Rain 46 8 46 8 100 100 NE 10 17 29.56 1001 1.75 2.816345 0.02 0.508
3:56 pm 15:56 Cloudy with Light Rain 47 8.3 47 8.3 100 100 NE 9 15 29.53 1000 2 3.21868 0.02 0.508
4:04 pm 16:04 Cloudy with Light Rain 46 8 46 8 100 100 NE 9 15 29.56 1001 1.75 2.816345 N/A
4:14 pm 16:14 Cloudy with Light Rain 46 8 46 8 100 100 NE 8 13 29.56 1001 2.5 4.02335 N/A
4:39 pm 16:39 Cloudy with Rain 46 8 46 8 100 100 N 9 15 29.56 1001 6 9.65604 0.01 0.254
4:56 pm 16:56 Cloudy with Rain 47 8.3 47 8.3 100 100 NNE 9 15 29.53 1000 5 8.0467 0.02 0.508
5:12 pm 17:12 Cloudy with Light Rain 46 8 46 8 100 100 NNE 12 19 29.53 1000 2.5 4.02335 N/A
5:28 pm 17:28 Cloudy with Rain 46 8 46 8 100 100 NNE 8 13 29.53 1000 2 3.21868 N/A
5:35 pm 17:35 Cloudy with Light Rain 46 8 46 8 100 100 N 8 13 29.56 1001 3 4.82802 N/A
5:56 pm 17:56 Cloudy with Light Rain 46 7.8 46 7.8 100 100 N 6 9 29.53 1000 4 6.43736 N/A
6:56 pm 18:56 Cloudy with Light Rain 46 7.8 46 7.8 100 100 NNE 9 15 29.52 1000 10 16.0934 0.03 0.762
7:56 pm 19:56 Cloudy 46 7.8 46 7.8 100 100 NE 8 13 29.51 999 10 16.0934 0.02 0.508
8:56 pm 20:56 Cloudy with Heavy Rain 46 7.8 46 7.8 100 100 WNW 12 19 29.56 1001 4 6.43736 0.01 0.254
9:14 pm 21:14 Cloudy with Rain 46 8 46 8 100 100 NNW 10 17 29.56 1001 10 16.0934 N/A
9:36 pm 21:36 Cloudy with Light Rain 46 8 46 8 100 100 N 12 19 29.56 1001 10 16.0934 N/A
9:56 pm 21:56 Cloudy with Light Rain 46 7.8 46 7.8 100 100 NNE 10 17 29.54 1000 10 16.0934 N/A
10:34 pm 22:34 Cloudy with Light Rain 46 8 46 8 100 100 ENE 8 13 29.56 1001 10 16.0934 0.01 0.254
10:56 pm 22:56 Cloudy with Light Rain 47 8.3 47 8.3 100 100 WNW 6 9 29.56 1001 5 8.0467 0.01 0.254
11:09 pm 23:09 Cloudy with Light Rain 46 8 46 8 100 100 W 5 7 29.56 1001 2.5 4.02335 N/A
11:21 pm 23:21 Cloudy with Light Rain 46 8 46 8 100 100 N N/A 29.56 1001 3 4.82802 N/A
11:38 pm 23:38 Cloudy with Light Rain 46 8 46 8 100 100 N N/A 29.56 1001 7 11.26538 N/A
11:56 pm 23:56 Cloudy 46 7.8 46 7.8 100 100 W 5 7 29.57 1001 10 16.0934 N/A

Powered by AerisWeather